RYR1KN EETN-LOWW

Flight info

Callsign RYR1KN
Flight time 2h 2m
Altitude 36000
Route NITSO DCT SOKVA DCT BERIL/N0465F350 DCT SUWGI/N0463F360 DCT NORNO DCT UNPEG DCT BULEP DCT EVINA DCT BAVOK DCT MIKOV MIKOV8W
Aircraft B738/M-SDE2E3FGHIRWXY/LB1

Departure

Time 2026-04-25 17:55
Airport Lennart Meri Tallinn Airport (EETN)

Arrival

Time 2026-04-25 19:58
Airport Vienna International Airport (LOWW)
Time Latitude Longitude Altitude Speed Heading
2026-04-25 17:13 59.41602 24.80389 142 ft 0 kts 326°
2026-04-25 17:39 59.41598 24.80393 142 ft 1 kts 298°
2026-04-25 17:39 59.41593 24.80413 142 ft 2 kts 323°
2026-04-25 17:40 59.41581 24.80429 142 ft 2 kts 326°
2026-04-25 17:40 59.41568 24.80444 142 ft 2 kts 333°
2026-04-25 17:40 59.41555 24.80457 142 ft 2 kts 337°
2026-04-25 17:40 59.41540 24.80468 142 ft 2 kts 342°
2026-04-25 17:41 59.41526 24.80476 142 ft 2 kts 347°
2026-04-25 17:41 59.41512 24.80482 142 ft 2 kts 352°
2026-04-25 17:41 59.41497 24.80485 142 ft 2 kts 357°
2026-04-25 17:41 59.41481 24.80485 142 ft 2 kts
2026-04-25 17:42 59.41469 24.80484 142 ft 0 kts
2026-04-25 17:42 59.41462 24.80482 142 ft 0 kts
2026-04-25 17:46 59.41464 24.80483 142 ft 1 kts
2026-04-25 17:46 59.41487 24.80500 142 ft 4 kts 41°
2026-04-25 17:46 59.41504 24.80572 142 ft 7 kts 81°
2026-04-25 17:47 59.41502 24.80679 142 ft 8 kts 87°
2026-04-25 17:47 59.41505 24.80809 142 ft 10 kts 87°
2026-04-25 17:47 59.41500 24.80941 142 ft 9 kts 90°
2026-04-25 17:47 59.41504 24.81087 142 ft 11 kts 86°
2026-04-25 17:48 59.41504 24.81435 142 ft 13 kts 90°
2026-04-25 17:48 59.41504 24.81628 142 ft 14 kts 90°
2026-04-25 17:48 59.41505 24.81832 142 ft 15 kts 90°
2026-04-25 17:49 59.41505 24.82054 142 ft 16 kts 90°
2026-04-25 17:49 59.41503 24.82288 142 ft 17 kts 91°
2026-04-25 17:49 59.41505 24.82536 142 ft 17 kts 89°
2026-04-25 17:49 59.41502 24.82783 142 ft 18 kts 90°
2026-04-25 17:50 59.41502 24.83036 142 ft 18 kts 90°
2026-04-25 17:50 59.41501 24.83287 142 ft 19 kts 90°
2026-04-25 17:50 59.41502 24.83564 142 ft 21 kts 89°
2026-04-25 17:50 59.41501 24.83855 142 ft 21 kts 90°
2026-04-25 17:51 59.41501 24.84156 142 ft 22 kts 89°
2026-04-25 17:51 59.41501 24.84445 142 ft 21 kts 91°
2026-04-25 17:51 59.41501 24.84739 142 ft 22 kts 90°
2026-04-25 17:51 59.41500 24.85044 142 ft 22 kts 90°
2026-04-25 17:52 59.41501 24.85358 142 ft 23 kts 90°
2026-04-25 17:52 59.41501 24.85570 142 ft 23 kts 85°
2026-04-25 17:52 59.41501 24.85947 142 ft 19 kts 92°
2026-04-25 17:52 59.41498 24.86210 142 ft 19 kts 91°
2026-04-25 17:53 59.41497 24.86479 142 ft 18 kts 90°
2026-04-25 17:53 59.41464 24.86691 142 ft 15 kts 154°
2026-04-25 17:53 59.41398 24.86710 142 ft 9 kts 176°
2026-04-25 17:53 59.41332 24.86677 142 ft 9 kts 229°
2026-04-25 17:54 59.41320 24.86568 142 ft 0 kts 269°
2026-04-25 17:54 59.41320 24.86520 142 ft 19 kts 270°
2026-04-25 17:54 59.41323 24.85800 142 ft 85 kts 272°
2026-04-25 17:54 59.41330 24.84254 142 ft 139 kts 272°
2026-04-25 17:55 59.41325 24.82035 203 ft 176 kts 272°
2026-04-25 17:55 59.41262 24.79709 957 ft 171 kts 274°
2026-04-25 17:55 59.41240 24.77419 1675 ft 170 kts 271°
2026-04-25 17:55 59.41034 24.75135 2343 ft 173 kts 256°
2026-04-25 17:56 59.40397 24.72990 2557 ft 204 kts 229°
2026-04-25 17:56 59.39042 24.71744 2871 ft 232 kts 186°
2026-04-25 17:56 59.37452 24.72467 3330 ft 247 kts 154°
2026-04-25 17:56 59.35917 24.74139 3839 ft 258 kts 155°
2026-04-25 17:57 59.34245 24.75470 4525 ft 261 kts 166°
2026-04-25 17:57 59.32462 24.76359 5023 ft 272 kts 172°
2026-04-25 17:57 59.30623 24.77069 5747 ft 274 kts 173°
2026-04-25 17:57 59.29349 24.77545 6188 ft 278 kts 173°
2026-04-25 17:58 59.26820 24.78532 7111 ft 283 kts 172°
2026-04-25 17:58 59.24899 24.79304 7789 ft 286 kts 172°
2026-04-25 17:58 59.22944 24.80104 8430 ft 288 kts 171°
2026-04-25 17:58 59.20992 24.80905 9052 ft 290 kts 170°
2026-04-25 17:59 59.19030 24.81704 9675 ft 292 kts 169°
2026-04-25 17:59 59.17041 24.82510 10211 ft 297 kts 168°
2026-04-25 17:59 59.14981 24.83351 10628 ft 313 kts 169°
2026-04-25 17:59 59.12794 24.84235 11060 ft 329 kts 170°
2026-04-25 18:00 59.10512 24.85154 11534 ft 343 kts 171°
2026-04-25 18:00 59.08173 24.86096 12334 ft 346 kts 172°
2026-04-25 18:00 59.05809 24.87048 13061 ft 350 kts 172°
2026-04-25 18:00 59.02643 24.88318 14047 ft 355 kts 172°
2026-04-25 18:01 59.01039 24.88971 14621 ft 355 kts 172°
2026-04-25 18:01 58.98615 24.89952 15582 ft 354 kts 172°
2026-04-25 18:01 58.96243 24.90905 16495 ft 351 kts 173°
2026-04-25 18:01 58.93837 24.91865 17082 ft 356 kts 172°
2026-04-25 18:02 58.91428 24.92825 17782 ft 358 kts 172°
2026-04-25 18:02 58.88977 24.93801 18425 ft 360 kts 172°
2026-04-25 18:02 58.86546 24.94770 19086 ft 362 kts 172°
2026-04-25 18:02 58.84054 24.95622 19663 ft 363 kts 177°
2026-04-25 18:03 58.81554 24.95863 20215 ft 363 kts 186°
2026-04-25 18:03 58.79047 24.95203 20784 ft 362 kts 196°
2026-04-25 18:03 58.76649 24.93850 21398 ft 360 kts 202°
2026-04-25 18:03 58.74295 24.92207 21953 ft 362 kts 204°
2026-04-25 18:04 58.71969 24.90449 22424 ft 366 kts 205°
2026-04-25 18:04 58.69611 24.88622 22971 ft 367 kts 205°
2026-04-25 18:04 58.67246 24.86787 23470 ft 370 kts 205°
2026-04-25 18:04 58.64840 24.84933 23963 ft 373 kts 205°
2026-04-25 18:05 58.62408 24.83083 24423 ft 376 kts 205°
2026-04-25 18:05 58.59980 24.81254 24869 ft 378 kts 205°
2026-04-25 18:05 58.57502 24.79394 25243 ft 382 kts 205°
2026-04-25 18:05 58.55012 24.77529 25558 ft 387 kts 205°
2026-04-25 18:06 58.52510 24.75660 25920 ft 389 kts 205°
2026-04-25 18:06 58.49990 24.73783 26217 ft 393 kts 206°
2026-04-25 18:06 58.47439 24.71888 26543 ft 396 kts 205°
2026-04-25 18:06 58.44892 24.69996 26793 ft 401 kts 206°
2026-04-25 18:07 58.42280 24.68061 27158 ft 402 kts 206°
2026-04-25 18:07 58.39701 24.66152 27372 ft 407 kts 206°
2026-04-25 18:07 58.37030 24.64178 27684 ft 409 kts 206°
2026-04-25 18:07 58.34389 24.62229 27967 ft 412 kts 206°
2026-04-25 18:08 58.31710 24.60256 28193 ft 417 kts 206°
2026-04-25 18:08 58.29009 24.58269 28505 ft 418 kts 206°
2026-04-25 18:08 58.26295 24.56276 28723 ft 422 kts 206°
2026-04-25 18:08 58.23560 24.54271 29038 ft 424 kts 206°
2026-04-25 18:09 58.20812 24.52261 29287 ft 426 kts 206°
2026-04-25 18:09 58.18081 24.50268 29538 ft 428 kts 206°
2026-04-25 18:09 58.15271 24.48219 29759 ft 431 kts 206°
2026-04-25 18:09 58.13438 24.46884 29921 ft 433 kts 206°
2026-04-25 18:10 58.10597 24.44817 30170 ft 435 kts 206°
2026-04-25 18:10 58.06848 24.42098 30436 ft 440 kts 206°
2026-04-25 18:10 58.03999 24.40036 30659 ft 442 kts 206°
2026-04-25 18:10 58.01114 24.37952 30877 ft 444 kts 206°
2026-04-25 18:11 57.98225 24.35867 31097 ft 447 kts 206°
2026-04-25 18:11 57.95343 24.33788 31297 ft 450 kts 205°
2026-04-25 18:11 57.92390 24.31662 31501 ft 453 kts 205°
2026-04-25 18:11 57.89440 24.29552 31724 ft 455 kts 204°
2026-04-25 18:12 57.86451 24.27571 31944 ft 458 kts 202°
2026-04-25 18:12 57.83432 24.25738 32135 ft 461 kts 201°
2026-04-25 18:12 57.80405 24.23989 32464 ft 459 kts 201°
2026-04-25 18:12 57.77367 24.22263 32715 ft 460 kts 201°
2026-04-25 18:13 57.74313 24.20530 32930 ft 461 kts 201°
2026-04-25 18:13 57.71233 24.18773 33192 ft 461 kts 201°
2026-04-25 18:13 57.68214 24.17043 33492 ft 460 kts 201°
2026-04-25 18:14 57.62128 24.13528 34045 ft 459 kts 201°
2026-04-25 18:14 57.59086 24.11763 34365 ft 458 kts 201°
2026-04-25 18:14 57.56043 24.09998 34648 ft 457 kts 201°
2026-04-25 18:14 57.53056 24.08266 34897 ft 457 kts 201°
2026-04-25 18:15 57.50008 24.06499 35146 ft 456 kts 201°
2026-04-25 18:15 57.47008 24.04762 35382 ft 456 kts 201°
2026-04-25 18:15 57.44000 24.03023 35484 ft 458 kts 201°
2026-04-25 18:15 57.40937 24.01253 35505 ft 459 kts 201°
2026-04-25 18:16 57.34892 23.97775 35518 ft 456 kts 201°
2026-04-25 18:17 57.25845 23.92592 35522 ft 456 kts 201°
2026-04-25 18:17 57.19810 23.89144 35528 ft 457 kts 201°
2026-04-25 18:18 57.13786 23.85712 35539 ft 457 kts 201°
2026-04-25 18:18 57.07716 23.82270 35542 ft 456 kts 201°
2026-04-25 18:19 57.01667 23.78851 35545 ft 456 kts 201°
2026-04-25 18:19 56.95648 23.75461 35547 ft 455 kts 202°
2026-04-25 18:20 56.89625 23.72080 35546 ft 455 kts 202°
2026-04-25 18:20 56.83548 23.68680 35548 ft 457 kts 202°
2026-04-25 18:21 56.77501 23.65313 35554 ft 456 kts 202°
2026-04-25 18:21 56.71444 23.61950 35552 ft 456 kts 202°
2026-04-25 18:22 56.65408 23.58606 35546 ft 456 kts 202°
2026-04-25 18:22 56.59336 23.55251 35544 ft 456 kts 202°
2026-04-25 18:23 56.53276 23.51918 35558 ft 456 kts 202°
2026-04-25 18:23 56.47214 23.48597 35546 ft 455 kts 202°
2026-04-25 18:24 56.41190 23.45307 35562 ft 455 kts 202°
2026-04-25 18:24 56.35083 23.42289 35574 ft 461 kts 198°
2026-04-25 18:25 56.29841 23.40680 35559 ft 462 kts 193°
2026-04-25 18:25 56.22370 23.39008 35558 ft 464 kts 193°
2026-04-25 18:26 56.15992 23.37599 35575 ft 464 kts 193°
2026-04-25 18:26 56.09645 23.36161 35589 ft 461 kts 194°
2026-04-25 18:27 56.03320 23.34689 35578 ft 460 kts 193°
2026-04-25 18:27 55.96948 23.33157 35587 ft 462 kts 193°
2026-04-25 18:28 55.90583 23.31624 35595 ft 461 kts 193°
2026-04-25 18:28 55.84277 23.30122 35575 ft 460 kts 193°
2026-04-25 18:29 55.74778 23.27899 35583 ft 460 kts 193°
2026-04-25 18:30 55.62144 23.24948 35556 ft 459 kts 194°
2026-04-25 18:30 55.55835 23.23473 35583 ft 459 kts 194°
2026-04-25 18:31 55.49542 23.22016 35568 ft 456 kts 194°
2026-04-25 18:31 55.43254 23.20558 35578 ft 457 kts 194°
2026-04-25 18:32 55.37007 23.19116 35594 ft 455 kts 194°
2026-04-25 18:32 55.30712 23.17657 35583 ft 454 kts 194°
2026-04-25 18:33 55.24494 23.16224 35595 ft 455 kts 194°
2026-04-25 18:33 55.18224 23.14787 35595 ft 454 kts 194°
2026-04-25 18:34 55.12009 23.13373 35613 ft 454 kts 194°
2026-04-25 18:34 55.05779 23.11955 35612 ft 451 kts 195°
2026-04-25 18:35 54.99577 23.10549 35616 ft 450 kts 195°
2026-04-25 18:35 54.93359 23.09137 35605 ft 451 kts 195°
2026-04-25 18:36 54.87127 23.07727 35600 ft 453 kts 195°
2026-04-25 18:36 54.80926 23.06332 35609 ft 451 kts 195°
2026-04-25 18:37 54.74710 23.04934 35608 ft 451 kts 195°
2026-04-25 18:37 54.68515 23.03552 35609 ft 449 kts 195°
2026-04-25 18:38 54.62324 23.02172 35627 ft 448 kts 195°
2026-04-25 18:38 54.56175 23.00808 35609 ft 448 kts 195°
2026-04-25 18:39 54.49992 22.99439 35610 ft 449 kts 195°
2026-04-25 18:39 54.43825 22.98083 35627 ft 447 kts 195°
2026-04-25 18:40 54.37649 22.96724 35628 ft 448 kts 195°
2026-04-25 18:40 54.31477 22.95371 35624 ft 448 kts 195°
2026-04-25 18:41 54.25348 22.94037 35613 ft 445 kts 196°
2026-04-25 18:41 54.19227 22.92695 35633 ft 448 kts 195°
2026-04-25 18:42 54.14066 22.91571 35653 ft 446 kts 195°
2026-04-25 18:42 54.06971 22.90021 35660 ft 442 kts 197°
2026-04-25 18:43 54.00935 22.88066 35651 ft 440 kts 201°
2026-04-25 18:43 53.95042 22.85724 35651 ft 436 kts 202°
2026-04-25 18:44 53.89137 22.83363 35649 ft 438 kts 201°
2026-04-25 18:44 53.83185 22.81041 35663 ft 439 kts 201°
2026-04-25 18:45 53.77367 22.78272 35652 ft 424 kts 216°
2026-04-25 18:45 53.74942 22.75589 35674 ft 411 kts 226°
2026-04-25 18:45 53.72780 22.72401 35661 ft 410 kts 230°
2026-04-25 18:46 53.68648 22.65873 35670 ft 410 kts 229°
2026-04-25 18:46 53.64393 22.59533 35670 ft 410 kts 228°
2026-04-25 18:47 53.60002 22.53354 35668 ft 414 kts 227°
2026-04-25 18:47 53.55522 22.47266 35677 ft 414 kts 226°
2026-04-25 18:48 53.51019 22.41236 35665 ft 414 kts 226°
2026-04-25 18:48 53.46539 22.35280 35669 ft 413 kts 226°
2026-04-25 18:49 53.42037 22.29315 35680 ft 417 kts 225°
2026-04-25 18:49 53.37510 22.23329 35686 ft 415 kts 225°
2026-04-25 18:50 53.32989 22.17361 35692 ft 416 kts 225°
2026-04-25 18:50 53.28439 22.11388 35695 ft 416 kts 225°
2026-04-25 18:51 53.24658 22.06449 35700 ft 416 kts 225°
2026-04-25 18:51 53.19340 21.99501 35702 ft 415 kts 225°
2026-04-25 18:52 53.14806 21.93595 35686 ft 417 kts 225°
2026-04-25 18:52 53.10253 21.87680 35709 ft 415 kts 225°
2026-04-25 18:53 53.05730 21.81821 35697 ft 415 kts 225°
2026-04-25 18:53 53.01161 21.75928 35701 ft 416 kts 225°
2026-04-25 18:54 52.94334 21.67136 35707 ft 415 kts 225°
2026-04-25 18:55 52.89781 21.61291 35720 ft 418 kts 225°
2026-04-25 18:55 52.85183 21.55409 35717 ft 416 kts 225°
2026-04-25 18:56 52.80597 21.49566 35715 ft 417 kts 225°
2026-04-25 18:56 52.76025 21.43749 35718 ft 418 kts 226°
2026-04-25 18:57 52.71433 21.37921 35732 ft 418 kts 225°
2026-04-25 18:57 52.66824 21.32093 35730 ft 420 kts 225°
2026-04-25 18:58 52.62202 21.26259 35738 ft 418 kts 225°
2026-04-25 18:58 52.55253 21.17520 35745 ft 420 kts 225°
2026-04-25 18:59 52.46007 21.05945 35759 ft 420 kts 225°
2026-04-25 19:00 52.39017 20.97240 35758 ft 420 kts 225°
2026-04-25 19:01 52.32047 20.88591 35776 ft 421 kts 225°
2026-04-25 19:01 52.27392 20.82841 35752 ft 421 kts 225°
2026-04-25 19:02 52.20380 20.74202 35771 ft 421 kts 225°
2026-04-25 19:03 52.14158 20.66557 35775 ft 422 kts 225°
2026-04-25 19:03 52.08735 20.59936 35572 ft 421 kts 225°
2026-04-25 19:04 52.04051 20.54219 35783 ft 425 kts 225°
2026-04-25 19:04 52.01666 20.51307 35780 ft 428 kts 225°
2026-04-25 19:05 51.92194 20.39819 35774 ft 425 kts 225°
2026-04-25 19:06 51.87410 20.34041 35772 ft 425 kts 225°
2026-04-25 19:06 51.80734 20.25998 35790 ft 428 kts 225°
2026-04-25 19:07 51.73595 20.17447 35802 ft 428 kts 225°
2026-04-25 19:08 51.66405 20.08846 35801 ft 428 kts 224°
2026-04-25 19:09 51.57623 19.98405 35792 ft 429 kts 225°
2026-04-25 19:10 51.49632 19.88947 35802 ft 430 kts 225°
2026-04-25 19:10 51.44844 19.83300 35829 ft 431 kts 225°
2026-04-25 19:11 51.40020 19.77626 35824 ft 430 kts 225°
2026-04-25 19:11 51.35215 19.71994 35827 ft 431 kts 224°
2026-04-25 19:12 51.30343 19.66289 35833 ft 433 kts 224°
2026-04-25 19:12 51.25529 19.60674 35828 ft 432 kts 224°
2026-04-25 19:13 51.20656 19.55001 35841 ft 433 kts 224°
2026-04-25 19:13 51.15818 19.49388 35843 ft 433 kts 224°
2026-04-25 19:14 51.10952 19.43751 35852 ft 433 kts 224°
2026-04-25 19:14 51.06092 19.38130 35847 ft 434 kts 224°
2026-04-25 19:15 51.01210 19.32509 35857 ft 435 kts 223°
2026-04-25 19:15 50.96286 19.26853 35864 ft 437 kts 223°
2026-04-25 19:16 50.91396 19.21263 35854 ft 434 kts 223°
2026-04-25 19:16 50.86580 19.15769 35869 ft 435 kts 223°
2026-04-25 19:17 50.81644 19.10142 35863 ft 435 kts 223°
2026-04-25 19:17 50.76791 19.04631 35872 ft 435 kts 223°
2026-04-25 19:18 50.71871 18.99048 35877 ft 437 kts 223°
2026-04-25 19:18 50.66970 18.93511 35879 ft 434 kts 223°
2026-04-25 19:19 50.62071 18.87990 35884 ft 435 kts 223°
2026-04-25 19:19 50.57151 18.82458 35889 ft 436 kts 223°
2026-04-25 19:20 50.52209 18.76917 35890 ft 436 kts 223°
2026-04-25 19:20 50.47280 18.71405 35893 ft 437 kts 223°
2026-04-25 19:21 50.42345 18.65900 35892 ft 436 kts 223°
2026-04-25 19:21 50.34930 18.57652 35894 ft 437 kts 223°
2026-04-25 19:22 50.29973 18.52160 35905 ft 438 kts 223°
2026-04-25 19:23 50.22553 18.43971 35911 ft 437 kts 223°
2026-04-25 19:23 50.15089 18.35754 35915 ft 438 kts 223°
2026-04-25 19:24 50.10094 18.30275 35913 ft 439 kts 222°
2026-04-25 19:25 50.00310 18.19532 35915 ft 438 kts 224°
2026-04-25 19:25 49.95510 18.13482 35920 ft 436 kts 227°
2026-04-25 19:26 49.90989 18.07375 35925 ft 433 kts 228°
2026-04-25 19:26 49.86443 18.01232 35929 ft 434 kts 228°
2026-04-25 19:27 49.82612 17.96106 35936 ft 435 kts 227°
2026-04-25 19:27 49.77249 17.88988 35933 ft 434 kts 227°
2026-04-25 19:28 49.72670 17.82942 35939 ft 435 kts 227°
2026-04-25 19:28 49.68081 17.76906 35935 ft 435 kts 227°
2026-04-25 19:29 49.63482 17.70875 35937 ft 434 kts 227°
2026-04-25 19:29 49.58877 17.64855 35941 ft 435 kts 227°
2026-04-25 19:30 49.54275 17.58845 35940 ft 436 kts 227°
2026-04-25 19:30 49.49646 17.52817 35942 ft 436 kts 227°
2026-04-25 19:31 49.45000 17.46792 35934 ft 437 kts 227°
2026-04-25 19:31 49.40365 17.40799 35883 ft 430 kts 226°
2026-04-25 19:32 49.38115 17.37901 36114 ft 428 kts 226°
2026-04-25 19:32 49.35862 17.34997 36347 ft 429 kts 226°
2026-04-25 19:32 49.33529 17.32000 35714 ft 420 kts 226°
2026-04-25 19:32 49.32056 17.30113 35691 ft 413 kts 226°
2026-04-25 19:33 49.29122 17.26344 36013 ft 416 kts 226°
2026-04-25 19:33 49.26867 17.23434 35925 ft 424 kts 226°
2026-04-25 19:33 49.22320 17.17575 35864 ft 434 kts 226°
2026-04-25 19:34 49.20025 17.14627 34954 ft 440 kts 226°
2026-04-25 19:34 49.17669 17.11617 33936 ft 439 kts 226°
2026-04-25 19:34 49.15331 17.08635 32508 ft 442 kts 225°
2026-04-25 19:34 49.13088 17.05782 31731 ft 439 kts 226°
2026-04-25 19:35 49.10755 17.02821 31247 ft 435 kts 226°
2026-04-25 19:35 49.08452 16.99905 30876 ft 433 kts 226°
2026-04-25 19:35 49.06159 16.96999 29591 ft 435 kts 226°
2026-04-25 19:35 49.03854 16.94076 28299 ft 436 kts 225°
2026-04-25 19:36 49.01543 16.91160 27005 ft 436 kts 225°
2026-04-25 19:36 48.99128 16.88333 25615 ft 438 kts 221°
2026-04-25 19:36 48.96685 16.85700 24124 ft 438 kts 220°
2026-04-25 19:36 48.94193 16.83103 22647 ft 436 kts 220°
2026-04-25 19:37 48.91682 16.80513 21182 ft 434 kts 219°
2026-04-25 19:37 48.89320 16.78080 20261 ft 419 kts 219°
2026-04-25 19:37 48.86955 16.75653 19272 ft 410 kts 219°
2026-04-25 19:37 48.84602 16.73237 18364 ft 398 kts 219°
2026-04-25 19:38 48.82355 16.70929 17695 ft 383 kts 219°
2026-04-25 19:38 48.80219 16.68741 17094 ft 368 kts 219°
2026-04-25 19:38 48.78124 16.66599 16292 ft 362 kts 219°
2026-04-25 19:38 48.76065 16.64491 15434 ft 358 kts 219°
2026-04-25 19:39 48.74007 16.62376 14568 ft 354 kts 219°
2026-04-25 19:39 48.71999 16.60309 13712 ft 350 kts 219°
2026-04-25 19:39 48.70027 16.58276 13042 ft 342 kts 219°
2026-04-25 19:39 48.68086 16.56274 12361 ft 335 kts 219°
2026-04-25 19:40 48.66175 16.54306 11720 ft 327 kts 219°
2026-04-25 19:40 48.64339 16.52423 11222 ft 316 kts 219°
2026-04-25 19:40 48.62545 16.50583 10733 ft 306 kts 219°
2026-04-25 19:40 48.60815 16.48812 10250 ft 298 kts 219°
2026-04-25 19:41 48.59133 16.47092 9771 ft 290 kts 219°
2026-04-25 19:41 48.57483 16.45399 9290 ft 284 kts 220°
2026-04-25 19:41 48.55883 16.43748 8818 ft 279 kts 220°
2026-04-25 19:41 48.54804 16.42630 8498 ft 276 kts 220°
2026-04-25 19:42 48.52712 16.40476 7866 ft 270 kts 219°
2026-04-25 19:42 48.51191 16.38910 7400 ft 266 kts 219°
2026-04-25 19:42 48.49674 16.37343 6980 ft 261 kts 220°
2026-04-25 19:42 48.48201 16.35825 6634 ft 253 kts 219°
2026-04-25 19:43 48.46764 16.34349 6290 ft 247 kts 219°
2026-04-25 19:43 48.45261 16.33072 6025 ft 254 kts 199°
2026-04-25 19:43 48.43453 16.33060 6020 ft 273 kts 165°
2026-04-25 19:43 48.41832 16.34533 6001 ft 270 kts 136°
2026-04-25 19:44 48.40605 16.36605 5999 ft 264 kts 130°
2026-04-25 19:44 48.39442 16.38715 6001 ft 263 kts 131°
2026-04-25 19:44 48.38232 16.40810 6002 ft 263 kts 132°
2026-04-25 19:44 48.36998 16.42861 6001 ft 263 kts 133°
2026-04-25 19:45 48.35779 16.44868 5999 ft 263 kts 133°
2026-04-25 19:45 48.34528 16.46913 6000 ft 263 kts 133°
2026-04-25 19:45 48.33300 16.48925 5997 ft 263 kts 133°
2026-04-25 19:45 48.32050 16.50975 5994 ft 264 kts 133°
2026-04-25 19:46 48.30807 16.53009 5995 ft 263 kts 133°
2026-04-25 19:46 48.29575 16.55032 5851 ft 266 kts 133°
2026-04-25 19:46 48.28335 16.57064 5647 ft 263 kts 133°
2026-04-25 19:46 48.27095 16.59095 5407 ft 262 kts 133°
2026-04-25 19:47 48.25865 16.61103 5159 ft 260 kts 133°
2026-04-25 19:47 48.24648 16.63100 4916 ft 259 kts 133°
2026-04-25 19:47 48.23463 16.65029 4681 ft 258 kts 134°
2026-04-25 19:47 48.22242 16.67015 4434 ft 257 kts 134°
2026-04-25 19:48 48.21041 16.68979 4190 ft 257 kts 134°
2026-04-25 19:48 48.19823 16.70965 3948 ft 256 kts 134°
2026-04-25 19:48 48.18631 16.72898 3724 ft 255 kts 134°
2026-04-25 19:48 48.17425 16.74857 3496 ft 254 kts 134°
2026-04-25 19:49 48.16223 16.76809 3260 ft 253 kts 134°
2026-04-25 19:49 48.15425 16.78102 3105 ft 253 kts 134°
2026-04-25 19:49 48.13880 16.80561 2979 ft 234 kts 135°
2026-04-25 19:49 48.12810 16.82296 2986 ft 222 kts 134°
2026-04-25 19:50 48.10749 16.85770 2994 ft 224 kts 133°
2026-04-25 19:50 48.09725 16.87495 3033 ft 222 kts 134°
2026-04-25 19:50 48.08691 16.89237 2966 ft 223 kts 133°
2026-04-25 19:51 48.07666 16.90953 2986 ft 220 kts 136°
2026-04-25 19:51 48.06422 16.92229 2988 ft 216 kts 168°
2026-04-25 19:51 48.04978 16.92300 2997 ft 206 kts 204°
2026-04-25 19:51 48.03850 16.91156 3013 ft 190 kts 240°
2026-04-25 19:52 48.03463 16.89362 2997 ft 181 kts 271°
2026-04-25 19:52 48.03527 16.87528 2987 ft 174 kts 276°
2026-04-25 19:52 48.03616 16.85746 2992 ft 168 kts 275°
2026-04-25 19:52 48.03695 16.83996 3001 ft 171 kts 275°
2026-04-25 19:53 48.03771 16.82215 2994 ft 173 kts 275°
2026-04-25 19:53 48.03879 16.80416 2992 ft 173 kts 281°
2026-04-25 19:53 48.04187 16.78704 2992 ft 172 kts 290°
2026-04-25 19:53 48.04626 16.77023 2994 ft 172 kts 293°
2026-04-25 19:54 48.05109 16.75397 2991 ft 172 kts 294°
2026-04-25 19:54 48.05611 16.73779 2958 ft 171 kts 295°
2026-04-25 19:54 48.06106 16.72237 2747 ft 158 kts 295°
2026-04-25 19:54 48.06412 16.71281 2638 ft 150 kts 296°
2026-04-25 19:55 48.07010 16.69440 2348 ft 147 kts 295°
2026-04-25 19:55 48.07460 16.68058 2149 ft 148 kts 295°
2026-04-25 19:55 48.07910 16.66679 1948 ft 147 kts 296°
2026-04-25 19:55 48.08353 16.65325 1784 ft 139 kts 296°
2026-04-25 19:56 48.08773 16.64046 1545 ft 135 kts 296°
2026-04-25 19:56 48.09177 16.62818 1380 ft 129 kts 296°
2026-04-25 19:56 48.09580 16.61584 1220 ft 135 kts 296°
2026-04-25 19:56 48.09985 16.60320 1023 ft 133 kts 294°
2026-04-25 19:57 48.10383 16.59082 881 ft 135 kts 296°
2026-04-25 19:57 48.10816 16.57803 682 ft 136 kts 295°
2026-04-25 19:57 48.11204 16.56610 608 ft 106 kts 298°
2026-04-25 19:57 48.11436 16.55926 608 ft 50 kts 299°
2026-04-25 19:58 48.11578 16.55502 608 ft 33 kts 299°
2026-04-25 19:58 48.11692 16.55295 608 ft 18 kts 316°
2026-04-25 19:58 48.11765 16.55190 608 ft 12 kts 316°
2026-04-25 19:58 48.11798 16.55155 608 ft 0 kts 338°
2026-04-25 19:59 48.11804 16.55151 608 ft 3 kts 338°
2026-04-25 20:00 48.11831 16.55137 608 ft 6 kts 348°
2026-04-25 20:00 48.11864 16.55144 608 ft 7 kts 18°
2026-04-25 20:00 48.11952 16.55185 608 ft 12 kts 352°
2026-04-25 20:00 48.12032 16.55198 608 ft 10 kts 26°
2026-04-25 20:01 48.12126 16.55196 608 ft 5 kts 299°
2026-04-25 20:01 48.12129 16.55189 608 ft 0 kts 299°